STARLINK-32598, 62046

Orbit data source: Space-Track

STARLINK-32598, 62046 is a payload satellite owned by SpaceX/Seattle (US) in LEO that was launched on Thu, 21 Nov 2024 UTC via an FALCON 9 launch vehicle from the Air Force Eastern Test Range (AFETR). Payload-class satellites include a variety of spacecraft equipped with specific instruments for various scientific and technological missions. These include communications satellites like Starlink; space stations such as the ISS; scientific satellites like the Hubble; Earth observation satellites from companies like Planet Labs, Umbra, and HawkEye 360; GPS; miniature CubeSats for education and research; and military/defense satellites.

Loading next visibility...
Identifier
62046, 2024-216Q
Orbit
LEO
Country
Flag of USUS
Related business
Manufacturer
SpaceX/Seattle
Mission
Operational Commercial Communications
Bus & Motor
STARLINK V2M, Unknown motor
Mass
730 kg wet, ~700 kg dry
Launch date (UTC)
2024-11-21 (2 years ago)
Launch vehicle
FALCON 9
Launch site
Air Force Eastern Test Range (AFETR)
Object type
Payload
Rocket body
Debris
Shape & HBR
Box + 2 Pan, 17.7 m
Radar Cross Section
33.884 m², Large (>1 m²)

Expand to show TLE details & history
Last TLE update: 5 hours ago

TLE from 5 hours ago
0 STARLINK-32598
1 62046U 24216Q   26264.27666030  .00008214  00000-0  30766-3 0  9993
2 62046  42.9997 231.2709 0000987 277.5795  82.4944 15.27582949103793
Epoch: 2026-09-21T06:38Z
TLE epoch observation values (Epoch: 2026-09-21T06:38:23.449Z)
Latitude
-0.00007°
Longitude
131.51431°
Altitude
482.727 km
Speed
7.626 km/s
True Right ascension
15h 25m 04s
True Declination
0° 00' 00"
Sunlit
Object was in daylight at epoch
Visualization orbit readout
Latitude
Unknown
Longitude
Unknown
Altitude
Unknown
Speed
Unknown
Apparent Right ascension
Unknown
Apparent Declination
Unknown
Sunlit
N/A
Visualization observer readout
Local Sidereal Time
04:56:40
Azimuth
Unknown
Elevation
Unknown
Doppler factor
Unknown
Orbital elements
Apogee altitude
485.663 km
Perigee altitude
484.308 km
Semi-major axis
6,863.122 km
Eccentricity
0.0001
Inclination
42.9997°
RAAN
231.2709°
Arg. of periapsis
277.5795°
True anomaly
82.50561°
Mean anomaly
82.4944°
Eccentric anomaly
82.50001°
Mean motion
3.81734 °/min
Orbital period
94.31 mins
BSTAR
0.00030766
Loading maneuver chart data...
Computing Atmospheric mass density...
Loading historical data...
Loading historical data...
Loading historical data...
Loading historical data...
Loading historical data...
Loading historical data...
Loading historical data...

Documentation

Showing up to 5 results
|